| time (UTC) | temp F | wind direction | speed MPH | gust MPH | rain 1hr in | rain 24hr in | rain mn in | humidity % | barometer mb |
| 20260506173549 | 68 | 82 | 2.0 | 6.0 | 0.00 | 0.00 | 0.00 | 78 | 1014.5 |
| 20260506173119 | 68 | 94 | 1.0 | 8.0 | 0.00 | 0.00 | 0.00 | 76 | 1014.7 |
| 20260506172548 | 68 | 70 | 3.0 | 8.0 | 0.00 | 0.00 | 0.00 | 75 | 1014.7 |
| 20260506172047 | 69 | 78 | 2.0 | 6.0 | 0.00 | 0.00 | 0.00 | 75 | 1014.6 |
| 20260506171553 | 69 | 0 | 0.0 | 3.0 | 0.00 | 0.00 | 0.00 | 75 | 1014.4 |
| 20260506171048 | 69 | 83 | 1.0 | 3.0 | 0.00 | 0.00 | 0.00 | 75 | 1014.5 |
| 20260506170550 | 68 | 0 | 0.0 | 4.0 | 0.00 | 0.00 | 0.00 | 75 | 1014.5 |
| 20260506170050 | 68 | 115 | 0.0 | 4.0 | 0.00 | 0.00 | 0.00 | 76 | 1014.4 |
| 20260506165547 | 68 | 0 | 1.0 | 4.0 | 0.00 | 0.00 | 0.00 | 75 | 1014.3 |
| 20260506165048 | 68 | 0 | 1.0 | 3.0 | 0.00 | 0.00 | 0.00 | 75 | 1014.3 |
| 20260506164552 | 68 | 119 | 2.0 | 3.0 | 0.00 | 0.00 | 0.00 | 76 | 1014.3 |
| 20260506164048 | 68 | 103 | 1.0 | 5.0 | 0.00 | 0.00 | 0.00 | 75 | 1014.3 |
| 20260506163544 | 68 | 84 | 2.0 | 6.0 | 0.00 | 0.00 | 0.00 | 74 | 1014.4 |
| 20260506163059 | 68 | 0 | 2.0 | 6.0 | 0.00 | 0.00 | 0.00 | 74 | 1014.4 |
| 20260506162547 | 68 | 91 | 2.0 | 9.0 | 0.00 | 0.00 | 0.00 | 73 | 1014.5 |
| 20260506162047 | 68 | 107 | 3.0 | 9.0 | 0.00 | 0.00 | 0.00 | 73 | 1014.4 |
| 20260506161555 | 68 | 23 | 2.0 | 9.0 | 0.00 | 0.00 | 0.00 | 73 | 1014.4 |
| 20260506161047 | 68 | 84 | 2.0 | 6.0 | 0.00 | 0.00 | 0.00 | 74 | 1014.4 |
| 20260506160544 | 67 | 82 | 2.0 | 8.0 | 0.00 | 0.00 | 0.00 | 74 | 1014.5 |
| 20260506160053 | 67 | 90 | 3.0 | 8.0 | 0.00 | 0.00 | 0.00 | 74 | 1014.4 |
| 20260506155552 | 67 | 38 | 2.0 | 11.0 | 0.00 | 0.00 | 0.00 | 74 | 1014.4 |
| 20260506155047 | 67 | 103 | 3.0 | 11.0 | 0.00 | 0.00 | 0.00 | 74 | 1014.4 |
| 20260506154555 | 67 | 302 | 2.0 | 7.0 | 0.00 | 0.00 | 0.00 | 74 | 1014.1 |
| 20260506154047 | 67 | 126 | 1.0 | 7.0 | 0.00 | 0.00 | 0.00 | 74 | 1013.9 |
| 20260506153547 | 66 | 77 | 1.0 | 8.0 | 0.00 | 0.00 | 0.00 | 74 | 1013.9 |
| 20260506153056 | 66 | 69 | 1.0 | 8.0 | 0.00 | 0.00 | 0.00 | 74 | 1013.9 |
| 20260506152548 | 66 | 74 | 2.0 | 8.0 | 0.00 | 0.00 | 0.00 | 74 | 1013.9 |
| 20260506152048 | 66 | 43 | 1.0 | 6.0 | 0.00 | 0.00 | 0.00 | 74 | 1014.1 |
| 20260506151552 | 66 | 317 | 2.0 | 6.0 | 0.00 | 0.00 | 0.00 | 74 | 1014.1 |
| 20260506151044 | 66 | 90 | 2.0 | 9.0 | 0.00 | 0.00 | 0.00 | 74 | 1014.1 |
| 20260506150550 | 66 | 91 | 4.0 | 9.0 | 0.00 | 0.00 | 0.00 | 74 | 1014.0 |
| 20260506150057 | 66 | 112 | 3.0 | 9.0 | 0.00 | 0.00 | 0.00 | 74 | 1014.0 |
| 20260506145545 | 66 | 48 | 2.0 | 9.0 | 0.00 | 0.00 | 0.00 | 73 | 1013.9 |
| 20260506145044 | 65 | 98 | 3.0 | 7.0 | 0.00 | 0.00 | 0.00 | 74 | 1014.0 |
| 20260506144604 | 65 | 91 | 3.0 | 9.0 | 0.00 | 0.00 | 0.00 | 74 | 1014.1 |
| 20260506144044 | 65 | 96 | 2.0 | 11.0 | 0.00 | 0.00 | 0.00 | 74 | 1014.2 |
| 20260506143547 | 65 | 80 | 3.0 | 11.0 | 0.00 | 0.00 | 0.00 | 73 | 1014.1 |
| 20260506143050 | 65 | 101 | 2.0 | 11.0 | 0.00 | 0.00 | 0.00 | 73 | 1014.2 |
| 20260506142546 | 65 | 101 | 2.0 | 11.0 | 0.00 | 0.00 | 0.00 | 73 | 1014.1 |
| 20260506142048 | 65 | 57 | 3.0 | 11.0 | 0.00 | 0.00 | 0.00 | 73 | 1013.9 |
| 20260506141546 | 65 | 342 | 4.0 | 11.0 | 0.00 | 0.00 | 0.00 | 73 | 1014.0 |
| 20260506141048 | 65 | 76 | 3.0 | 9.0 | 0.00 | 0.00 | 0.00 | 73 | 1014.0 |
| 20260506140547 | 65 | 57 | 3.0 | 11.0 | 0.00 | 0.00 | 0.00 | 73 | 1014.0 |
| 20260506140051 | 65 | 44 | 3.0 | 12.0 | 0.00 | 0.00 | 0.00 | 73 | 1013.9 |
| 20260506135547 | 65 | 106 | 5.0 | 12.0 | 0.00 | 0.00 | 0.00 | 73 | 1013.8 |
| 20260506135047 | 65 | 86 | 3.0 | 10.0 | 0.00 | 0.00 | 0.00 | 73 | 1013.9 |
| 20260506134555 | 65 | 75 | 5.0 | 10.0 | 0.00 | 0.00 | 0.00 | 72 | 1013.8 |
| 20260506134046 | 65 | 48 | 2.0 | 9.0 | 0.00 | 0.00 | 0.00 | 73 | 1013.9 |
| 20260506133548 | 65 | 71 | 3.0 | 12.0 | 0.00 | 0.00 | 0.00 | 73 | 1013.9 |
| 20260506133057 | 65 | 0 | 2.0 | 12.0 | 0.00 | 0.00 | 0.00 | 74 | 1014.0 |
| 20260506132544 | 64 | 103 | 3.0 | 8.0 | 0.00 | 0.00 | 0.00 | 74 | 1014.0 |
| 20260506132048 | 64 | 46 | 2.0 | 6.0 | 0.00 | 0.00 | 0.00 | 74 | 1013.7 |
| 20260506131549 | 64 | 317 | 2.0 | 13.0 | 0.00 | 0.00 | 0.00 | 74 | 1013.7 |
| 20260506131047 | 64 | 108 | 2.0 | 13.0 | 0.00 | 0.00 | 0.00 | 75 | 1013.6 |
| 20260506130547 | 63 | 13 | 5.0 | 13.0 | 0.00 | 0.00 | 0.00 | 75 | 1013.7 |
| 20260506130051 | 63 | 65 | 3.0 | 11.0 | 0.00 | 0.00 | 0.00 | 75 | 1013.8 |
| 20260506125545 | 63 | 62 | 2.0 | 11.0 | 0.00 | 0.00 | 0.00 | 76 | 1014.0 |
| 20260506125046 | 63 | 109 | 4.0 | 11.0 | 0.00 | 0.00 | 0.00 | 76 | 1014.1 |
| 20260506124551 | 63 | 93 | 1.0 | 9.0 | 0.00 | 0.00 | 0.00 | 77 | 1014.1 |
| 20260506124050 | 62 | 28 | 3.0 | 9.0 | 0.00 | 0.00 | 0.00 | 76 | 1014.2 |
| 20260506123548 | 62 | 40 | 2.0 | 9.0 | 0.00 | 0.00 | 0.00 | 77 | 1014.1 |
| 20260506123054 | 62 | 84 | 3.0 | 9.0 | 0.00 | 0.00 | 0.00 | 77 | 1014.3 |
| 20260506122546 | 62 | 56 | 3.0 | 12.0 | 0.00 | 0.00 | 0.00 | 77 | 1014.3 |
| 20260506122047 | 62 | 109 | 3.0 | 12.0 | 0.00 | 0.00 | 0.00 | 77 | 1014.3 |
| 20260506121553 | 62 | 70 | 4.0 | 12.0 | 0.00 | 0.00 | 0.00 | 77 | 1014.4 |
| 20260506121045 | 62 | 90 | 3.0 | 10.0 | 0.00 | 0.00 | 0.00 | 77 | 1014.2 |
| 20260506120546 | 62 | 17 | 3.0 | 9.0 | 0.00 | 0.00 | 0.00 | 77 | 1014.2 |
| 20260506120053 | 61 | 56 | 4.0 | 8.0 | 0.00 | 0.00 | 0.00 | 78 | 1014.2 |
| 20260506115548 | 61 | 96 | 2.0 | 8.0 | 0.00 | 0.00 | 0.00 | 78 | 1014.2 |
| 20260506115045 | 61 | 98 | 2.0 | 8.0 | 0.00 | 0.00 | 0.00 | 78 | 1014.2 |
| 20260506114551 | 61 | 44 | 3.0 | 8.0 | 0.00 | 0.00 | 0.00 | 78 | 1014.1 |
| 20260506114047 | 61 | 50 | 3.0 | 8.0 | 0.00 | 0.00 | 0.00 | 78 | 1014.1 |
| 20260506113545 | 61 | 64 | 3.0 | 7.0 | 0.00 | 0.00 | 0.00 | 78 | 1014.0 |
| 20260506113054 | 61 | 56 | 2.0 | 7.0 | 0.00 | 0.00 | 0.00 | 78 | 1013.9 |
| 20260506112547 | 61 | 64 | 2.0 | 6.0 | 0.00 | 0.00 | 0.00 | 78 | 1013.9 |
| 20260506112049 | 60 | 78 | 2.0 | 4.0 | 0.00 | 0.00 | 0.00 | 79 | 1013.9 |
| 20260506111557 | 60 | 49 | 1.0 | 4.0 | 0.00 | 0.00 | 0.00 | 79 | 1013.9 |
| 20260506111051 | 60 | 83 | 1.0 | 4.0 | 0.00 | 0.00 | 0.00 | 79 | 1013.8 |
| 20260506110548 | 60 | 76 | 1.0 | 4.0 | 0.00 | 0.00 | 0.00 | 79 | 1013.9 |
| 20260506110051 | 60 | 53 | 0.0 | 5.0 | 0.00 | 0.00 | 0.00 | 79 | 1013.6 |
| 20260506105548 | 60 | 97 | 1.0 | 5.0 | 0.00 | 0.00 | 0.00 | 79 | 1013.6 |
| 20260506105050 | 60 | 73 | 1.0 | 5.0 | 0.00 | 0.00 | 0.00 | 79 | 1013.4 |
| 20260506104559 | 60 | 0 | 1.0 | 5.0 | 0.00 | 0.00 | 0.00 | 79 | 1013.3 |
| 20260506104048 | 60 | 85 | 0.0 | 5.0 | 0.00 | 0.00 | 0.00 | 79 | 1013.3 |
| 20260506103547 | 60 | 84 | 0.0 | 6.0 | 0.00 | 0.00 | 0.00 | 78 | 1013.3 |
| 20260506103055 | 60 | 51 | 1.0 | 7.0 | 0.00 | 0.00 | 0.00 | 78 | 1013.3 |
| 20260506102548 | 60 | 62 | 1.0 | 8.0 | 0.00 | 0.00 | 0.00 | 78 | 1013.4 |
| 20260506102045 | 60 | 85 | 2.0 | 8.0 | 0.00 | 0.00 | 0.00 | 78 | 1013.5 |
| 20260506101551 | 60 | 84 | 2.0 | 8.0 | 0.00 | 0.00 | 0.00 | 78 | 1013.5 |
| 20260506101052 | 60 | 97 | 2.0 | 8.0 | 0.00 | 0.00 | 0.00 | 78 | 1013.4 |
| 20260506100545 | 60 | 67 | 1.0 | 8.0 | 0.00 | 0.00 | 0.00 | 78 | 1013.2 |
| 20260506100059 | 61 | 48 | 0.0 | 8.0 | 0.00 | 0.00 | 0.00 | 77 | 1013.1 |
| 20260506095548 | 61 | 5 | 1.0 | 6.0 | 0.00 | 0.00 | 0.00 | 77 | 1013.3 |
| 20260506095051 | 61 | 88 | 1.0 | 6.0 | 0.00 | 0.00 | 0.00 | 77 | 1013.4 |
| 20260506094611 | 61 | 67 | 0.0 | 6.0 | 0.00 | 0.00 | 0.00 | 77 | 1013.4 |
| 20260506094050 | 61 | 90 | 1.0 | 6.0 | 0.00 | 0.00 | 0.00 | 77 | 1013.4 |
| 20260506093550 | 61 | 0 | 2.0 | 6.0 | 0.00 | 0.00 | 0.00 | 77 | 1013.4 |
| 20260506093051 | 61 | 103 | 2.0 | 6.0 | 0.00 | 0.00 | 0.00 | 77 | 1013.6 |
| 20260506092545 | 61 | 92 | 2.0 | 6.0 | 0.00 | 0.00 | 0.00 | 77 | 1013.5 |
| 20260506092047 | 61 | 75 | 0.0 | 10.0 | 0.00 | 0.00 | 0.00 | 76 | 1013.4 |
| 20260506091551 | 61 | 46 | 2.0 | 10.0 | 0.00 | 0.00 | 0.00 | 76 | 1013.4 |
| 20260506091048 | 61 | 332 | 2.0 | 10.0 | 0.00 | 0.00 | 0.00 | 76 | 1013.6 |
| 20260506090547 | 61 | 21 | 1.0 | 5.0 | 0.00 | 0.00 | 0.00 | 76 | 1013.7 |
| 20260506090052 | 62 | 0 | 1.0 | 7.0 | 0.00 | 0.00 | 0.00 | 76 | 1013.8 |
| 20260506085547 | 62 | 83 | 1.0 | 9.0 | 0.00 | 0.00 | 0.00 | 75 | 1013.8 |
| 20260506085048 | 62 | 106 | 3.0 | 9.0 | 0.00 | 0.00 | 0.00 | 75 | 1013.8 |
| 20260506084557 | 62 | 40 | 3.0 | 9.0 | 0.00 | 0.00 | 0.00 | 75 | 1013.8 |
| 20260506084047 | 62 | 42 | 3.0 | 8.0 | 0.00 | 0.00 | 0.00 | 75 | 1013.8 |
| 20260506083550 | 62 | 86 | 3.0 | 8.0 | 0.00 | 0.00 | 0.00 | 75 | 1013.7 |
| 20260506083059 | 62 | 98 | 2.0 | 9.0 | 0.00 | 0.00 | 0.00 | 75 | 1013.7 |
| 20260506082550 | 62 | 127 | 2.0 | 10.0 | 0.00 | 0.00 | 0.00 | 74 | 1013.7 |
| 20260506082044 | 62 | 341 | 2.0 | 14.0 | 0.00 | 0.00 | 0.00 | 74 | 1013.7 |
| 20260506081550 | 62 | 36 | 4.0 | 14.0 | 0.00 | 0.00 | 0.00 | 74 | 1013.7 |
| 20260506081046 | 62 | 54 | 2.0 | 9.0 | 0.00 | 0.00 | 0.00 | 74 | 1013.7 |
| 20260506080548 | 63 | 65 | 4.0 | 11.0 | 0.00 | 0.00 | 0.00 | 74 | 1013.8 |
| 20260506073104 | 63 | 123 | 1.0 | 7.0 | 0.00 | 0.00 | 0.00 | 74 | 1013.4 |
| 20260506072545 | 63 | 61 | 1.0 | 9.0 | 0.00 | 0.00 | 0.00 | 74 | 1013.4 |
| 20260506072042 | 63 | 42 | 1.0 | 9.0 | 0.00 | 0.00 | 0.00 | 74 | 1013.6 |
| 20260506071552 | 63 | 76 | 2.0 | 12.0 | 0.00 | 0.00 | 0.00 | 74 | 1013.6 |
| 20260506071051 | 63 | 38 | 2.0 | 12.0 | 0.00 | 0.00 | 0.00 | 74 | 1013.6 |
| 20260506070544 | 63 | 55 | 2.0 | 9.0 | 0.00 | 0.00 | 0.00 | 74 | 1013.6 |
| 20260506062045 | 63 | 42 | 2.0 | 9.0 | 0.00 | 0.00 | 0.00 | 72 | 1014.0 |
| 20260506061552 | 63 | 340 | 3.0 | 9.0 | 0.00 | 0.00 | 0.00 | 72 | 1014.0 |
| 20260506061045 | 63 | 0 | 2.0 | 12.0 | 0.00 | 0.00 | 0.00 | 72 | 1014.1 |
| 20260506060544 | 63 | 342 | 2.0 | 12.0 | 0.00 | 0.00 | 0.00 | 71 | 1014.0 |
| 20260506051045 | 64 | 28 | 2.0 | 13.0 | 0.00 | 0.00 | 0.00 | 67 | 1014.2 |
| 20260506050545 | 64 | 311 | 3.0 | 13.0 | 0.00 | 0.00 | 0.00 | 67 | 1014.1 |
| 20260506045046 | 64 | 73 | 2.0 | 7.0 | 0.00 | 0.00 | 0.00 | 66 | 1014.4 |
| 20260506044553 | 64 | 87 | 1.0 | 3.0 | 0.00 | 0.00 | 0.00 | 65 | 1014.4 |
| 20260506044044 | 64 | 123 | 0.0 | 5.0 | 0.00 | 0.00 | 0.00 | 64 | 1014.3 |
| 20260506043544 | 65 | 328 | 1.0 | 5.0 | 0.00 | 0.00 | 0.00 | 64 | 1014.3 |
| 20260506043052 | 65 | 82 | 1.0 | 6.0 | 0.00 | 0.00 | 0.00 | 63 | 1014.3 |
| 20260506042544 | 65 | 107 | 2.0 | 10.0 | 0.00 | 0.00 | 0.00 | 63 | 1014.3 |
| 20260506042046 | 66 | 261 | 1.0 | 10.0 | 0.00 | 0.00 | 0.00 | 62 | 1014.3 |
| 20260506041557 | 66 | 336 | 2.0 | 10.0 | 0.00 | 0.00 | 0.00 | 62 | 1014.4 |
| 20260506041044 | 66 | 305 | 3.0 | 10.0 | 0.00 | 0.00 | 0.00 | 61 | 1014.4 |
| 20260506040544 | 66 | 107 | 4.0 | 10.0 | 0.00 | 0.00 | 0.00 | 61 | 1014.4 |
| 20260506040058 | 66 | 317 | 2.0 | 9.0 | 0.00 | 0.00 | 0.00 | 61 | 1014.3 |
| 20260506035545 | 66 | 66 | 2.0 | 10.0 | 0.00 | 0.00 | 0.00 | 60 | 1014.2 |
| 20260506035046 | 66 | 61 | 1.0 | 10.0 | 0.00 | 0.00 | 0.00 | 60 | 1014.2 |
| 20260506034557 | 66 | 282 | 3.0 | 10.0 | 0.00 | 0.00 | 0.00 | 60 | 1014.2 |
| 20260506034045 | 65 | 111 | 1.0 | 9.0 | 0.00 | 0.00 | 0.00 | 60 | 1014.1 |
| 20260506033544 | 65 | 274 | 2.0 | 9.0 | 0.00 | 0.00 | 0.00 | 61 | 1014.0 |
| 20260506033106 | 64 | 157 | 1.0 | 8.0 | 0.00 | 0.00 | 0.00 | 61 | 1013.9 |
| 20260506032544 | 64 | 40 | 0.0 | 3.0 | 0.00 | 0.00 | 0.00 | 60 | 1013.9 |
| 20260506032047 | 64 | 266 | 0.0 | 3.0 | 0.00 | 0.00 | 0.00 | 61 | 1013.9 |
| 20260506031553 | 64 | 41 | 0.0 | 3.0 | 0.00 | 0.00 | 0.00 | 61 | 1014.0 |
| 20260506031045 | 64 | 0 | 0.0 | 2.0 | 0.00 | 0.00 | 0.00 | 61 | 1014.2 |
| 20260506030545 | 64 | 82 | 0.0 | 2.0 | 0.00 | 0.00 | 0.00 | 61 | 1014.3 |
| 20260506025544 | 64 | 91 | 0.0 | 2.0 | 0.00 | 0.00 | 0.00 | 61 | 1014.3 |
| 20260506025048 | 64 | 163 | 0.0 | 2.0 | 0.00 | 0.00 | 0.00 | 60 | 1014.3 |
| 20260506024608 | 64 | 0 | 0.0 | 2.0 | 0.00 | 0.00 | 0.00 | 61 | 1014.3 |
| 20260506024045 | 64 | 192 | 0.0 | 2.0 | 0.00 | 0.00 | 0.00 | 61 | 1014.4 |
| 20260506023544 | 64 | 0 | 0.0 | 2.0 | 0.00 | 0.00 | 0.00 | 61 | 1014.5 |
| 20260506023102 | 64 | 63 | 0.0 | 2.0 | 0.00 | 0.00 | 0.00 | 61 | 1014.7 |
| 20260506022545 | 64 | 0 | 0.0 | 2.0 | 0.00 | 0.00 | 0.00 | 61 | 1014.6 |
| 20260506022045 | 64 | 63 | 0.0 | 2.0 | 0.00 | 0.00 | 0.00 | 61 | 1014.6 |
| 20260506021557 | 64 | 38 | 0.0 | 1.0 | 0.00 | 0.00 | 0.00 | 61 | 1014.6 |
| 20260506021045 | 64 | 0 | 0.0 | 1.0 | 0.00 | 0.00 | 0.00 | 60 | 1014.6 |
| 20260506020544 | 65 | 0 | 0.0 | 1.0 | 0.00 | 0.00 | 0.00 | 60 | 1014.6 |
| 20260506020055 | 64 | 38 | 0.0 | 1.0 | 0.00 | 0.00 | 0.00 | 60 | 1014.5 |
| 20260506015548 | 65 | 0 | 0.0 | 2.0 | 0.00 | 0.00 | 0.00 | 59 | 1014.4 |
| 20260506015047 | 65 | 0 | 0.0 | 2.0 | 0.00 | 0.00 | 0.00 | 59 | 1014.3 |
| 20260506014559 | 65 | 0 | 0.0 | 1.0 | 0.00 | 0.00 | 0.00 | 58 | 1014.3 |
| 20260506014047 | 66 | 89 | 0.0 | 0.0 | 0.00 | 0.00 | 0.00 | 57 | 1014.3 |
| 20260506013545 | 66 | 0 | 0.0 | 2.0 | 0.00 | 0.00 | 0.00 | 57 | 1014.2 |
| 20260506013105 | 67 | 0 | 0.0 | 2.0 | 0.00 | 0.00 | 0.00 | 56 | 1014.2 |
| 20260506012545 | 67 | 0 | 0.0 | 1.0 | 0.00 | 0.00 | 0.00 | 55 | 1014.2 |
| 20260506012045 | 67 | 0 | 0.0 | 1.0 | 0.00 | 0.00 | 0.00 | 54 | 1014.2 |
| 20260506011621 | 68 | 0 | 0.0 | 1.0 | 0.00 | 0.00 | 0.00 | 54 | 1014.2 |
| 20260506011047 | 68 | 0 | 0.0 | 1.0 | 0.00 | 0.00 | 0.00 | 53 | 1014.3 |
| 20260506010545 | 68 | 0 | 0.0 | 6.0 | 0.00 | 0.00 | 0.00 | 52 | 1014.1 |
| 20260506010056 | 69 | 76 | 0.0 | 6.0 | 0.00 | 0.00 | 0.00 | 51 | 1014.0 |
| 20260506005548 | 69 | 309 | 0.0 | 6.0 | 0.00 | 0.00 | 0.00 | 51 | 1013.9 |
| 20260506005050 | 69 | 306 | 1.0 | 5.0 | 0.00 | 0.00 | 0.00 | 50 | 1014.0 |
| 20260506004556 | 70 | 42 | 1.0 | 3.0 | 0.00 | 0.00 | 0.00 | 50 | 1013.9 |
| 20260506004048 | 70 | 85 | 1.0 | 3.0 | 0.00 | 0.00 | 0.00 | 49 | 1013.9 |
| 20260506003548 | 70 | 90 | 0.0 | 3.0 | 0.00 | 0.00 | 0.00 | 49 | 1013.8 |
| 20260506003051 | 70 | 116 | 0.0 | 3.0 | 0.00 | 0.00 | 0.00 | 48 | 1013.8 |
| 20260506002547 | 71 | 0 | 0.0 | 5.0 | 0.00 | 0.00 | 0.00 | 47 | 1013.8 |
| 20260506002045 | 71 | 76 | 0.0 | 5.0 | 0.00 | 0.00 | 0.00 | 47 | 1013.7 |
| 20260506001601 | 72 | 109 | 1.0 | 5.0 | 0.00 | 0.00 | 0.00 | 46 | 1013.7 |
| 20260506001046 | 72 | 0 | 1.0 | 4.0 | 0.00 | 0.00 | 0.00 | 45 | 1013.7 |
| 20260506000546 | 72 | 54 | 0.0 | 3.0 | 0.00 | 0.00 | 0.00 | 45 | 1013.8 |
| 20260506000059 | 73 | 19 | 1.0 | 6.0 | 0.00 | 0.00 | 0.00 | 44 | 1013.6 |
| 20260505235547 | 73 | 0 | 1.0 | 6.0 | 0.00 | 0.00 | 0.00 | 43 | 1013.7 |
| 20260505235047 | 73 | 97 | 3.0 | 6.0 | 0.00 | 0.00 | 0.00 | 43 | 1013.7 |
| 20260505234556 | 74 | 90 | 2.0 | 8.0 | 0.00 | 0.00 | 0.00 | 42 | 1013.5 |
| 20260505234048 | 74 | 113 | 2.0 | 8.0 | 0.00 | 0.00 | 0.00 | 42 | 1013.5 |
| 20260505233546 | 74 | 65 | 0.0 | 8.0 | 0.00 | 0.00 | 0.00 | 41 | 1013.5 |
| 20260505233056 | 74 | 86 | 1.0 | 8.0 | 0.00 | 0.00 | 0.00 | 41 | 1013.4 |
| 20260505232548 | 75 | 118 | 1.0 | 9.0 | 0.00 | 0.00 | 0.00 | 40 | 1013.3 |
| 20260505232045 | 75 | 53 | 3.0 | 9.0 | 0.00 | 0.00 | 0.00 | 40 | 1013.3 |
| 20260505231600 | 75 | 115 | 3.0 | 12.0 | 0.00 | 0.00 | 0.00 | 40 | 1013.3 |
| 20260505231047 | 75 | 181 | 4.0 | 12.0 | 0.00 | 0.00 | 0.00 | 39 | 1013.2 |
| 20260505230548 | 76 | 98 | 4.0 | 12.0 | 0.00 | 0.00 | 0.00 | 38 | 1013.0 |
| 20260505225609 | 76 | 342 | 4.0 | 13.0 | 0.00 | 0.00 | 0.00 | 37 | 1013.2 |
| 20260505225046 | 77 | 62 | 4.0 | 12.0 | 0.00 | 0.00 | 0.00 | 37 | 1013.3 |
| 20260505224551 | 77 | 10 | 3.0 | 11.0 | 0.00 | 0.00 | 0.00 | 36 | 1013.2 |
| 20260505224045 | 78 | 53 | 5.0 | 14.0 | 0.00 | 0.00 | 0.00 | 36 | 1013.2 |
| 20260505223546 | 78 | 329 | 4.0 | 14.0 | 0.00 | 0.00 | 0.00 | 36 | 1013.3 |
| 20260505223050 | 78 | 95 | 5.0 | 16.0 | 0.00 | 0.00 | 0.00 | 36 | 1013.3 |
| 20260505222545 | 78 | 78 | 5.0 | 16.0 | 0.00 | 0.00 | 0.00 | 36 | 1013.3 |
| 20260505222045 | 78 | 132 | 5.0 | 16.0 | 0.00 | 0.00 | 0.00 | 36 | 1013.3 |
| 20260505221603 | 78 | 93 | 5.0 | 16.0 | 0.00 | 0.00 | 0.00 | 35 | 1013.3 |
| 20260505221047 | 78 | 83 | 3.0 | 15.0 | 0.00 | 0.00 | 0.00 | 36 | 1013.4 |
| 20260505220548 | 77 | 39 | 5.0 | 15.0 | 0.00 | 0.00 | 0.00 | 37 | 1013.5 |
| 20260505220101 | 77 | 311 | 6.0 | 15.0 | 0.00 | 0.00 | 0.00 | 36 | 1013.7 |
| 20260505215548 | 77 | 88 | 5.0 | 15.0 | 0.00 | 0.00 | 0.00 | 38 | 1013.7 |
| 20260505215048 | 77 | 312 | 5.0 | 15.0 | 0.00 | 0.00 | 0.00 | 38 | 1013.6 |
| 20260505214554 | 77 | 75 | 5.0 | 14.0 | 0.00 | 0.00 | 0.00 | 37 | 1013.7 |
| 20260505214045 | 78 | 118 | 7.0 | 14.0 | 0.00 | 0.00 | 0.00 | 37 | 1013.6 |
| 20260505213544 | 79 | 76 | 3.0 | 12.0 | 0.00 | 0.00 | 0.00 | 37 | 1013.7 |
| 20260505213054 | 79 | 105 | 4.0 | 12.0 | 0.00 | 0.00 | 0.00 | 37 | 1013.7 |
| 20260505212545 | 79 | 346 | 5.0 | 15.0 | 0.00 | 0.00 | 0.00 | 36 | 1013.6 |
| 20260505212047 | 79 | 106 | 8.0 | 15.0 | 0.00 | 0.00 | 0.00 | 35 | 1013.5 |
| 20260505211554 | 80 | 59 | 3.0 | 12.0 | 0.00 | 0.00 | 0.00 | 36 | 1013.7 |
| 20260505211046 | 79 | 304 | 5.0 | 18.0 | 0.00 | 0.00 | 0.00 | 36 | 1013.7 |
| 20260505210547 | 79 | 220 | 6.0 | 18.0 | 0.00 | 0.00 | 0.00 | 36 | 1013.9 |
| 20260505210055 | 79 | 97 | 5.0 | 14.0 | 0.00 | 0.00 | 0.00 | 35 | 1013.9 |
| 20260505205547 | 79 | 338 | 4.0 | 16.0 | 0.00 | 0.00 | 0.00 | 35 | 1013.9 |
| 20260505205048 | 79 | 191 | 8.0 | 18.0 | 0.00 | 0.00 | 0.00 | 35 | 1013.7 |
| 20260505204600 | 80 | 100 | 5.0 | 18.0 | 0.00 | 0.00 | 0.00 | 36 | 1013.8 |
| 20260505204049 | 80 | 86 | 5.0 | 18.0 | 0.00 | 0.00 | 0.00 | 35 | 1013.6 |
| 20260505203549 | 79 | 249 | 7.0 | 18.0 | 0.00 | 0.00 | 0.00 | 36 | 1013.7 |
| 20260505203052 | 79 | 340 | 8.0 | 18.0 | 0.00 | 0.00 | 0.00 | 35 | 1013.8 |
| 20260505202548 | 79 | 360 | 6.0 | 17.0 | 0.00 | 0.00 | 0.00 | 35 | 1013.7 |
| 20260505202047 | 79 | 133 | 5.0 | 17.0 | 0.00 | 0.00 | 0.00 | 35 | 1013.8 |
| 20260505201551 | 79 | 72 | 5.0 | 19.0 | 0.00 | 0.00 | 0.00 | 35 | 1013.9 |
| 20260505201048 | 79 | 66 | 8.0 | 19.0 | 0.00 | 0.00 | 0.00 | 35 | 1014.0 |
| 20260505200546 | 79 | 283 | 6.0 | 16.0 | 0.00 | 0.00 | 0.00 | 35 | 1014.1 |
| 20260505200051 | 79 | 344 | 5.0 | 16.0 | 0.00 | 0.00 | 0.00 | 34 | 1014.1 |
| 20260505195546 | 80 | 90 | 7.0 | 15.0 | 0.00 | 0.00 | 0.00 | 32 | 1014.2 |
| 20260505195046 | 80 | 100 | 4.0 | 14.0 | 0.00 | 0.00 | 0.00 | 33 | 1014.3 |
| 20260505194602 | 79 | 108 | 5.0 | 17.0 | 0.00 | 0.00 | 0.00 | 35 | 1014.4 |
| 20260505194048 | 79 | 53 | 5.0 | 17.0 | 0.00 | 0.00 | 0.00 | 34 | 1014.5 |
| 20260505193546 | 79 | 107 | 5.0 | 17.0 | 0.00 | 0.00 | 0.00 | 34 | 1014.4 |
| 20260505193058 | 80 | 21 | 7.0 | 13.0 | 0.00 | 0.00 | 0.00 | 34 | 1014.6 |
| 20260505192545 | 80 | 129 | 4.0 | 16.0 | 0.00 | 0.00 | 0.00 | 34 | 1014.5 |
| 20260505192045 | 80 | 281 | 4.0 | 16.0 | 0.00 | 0.00 | 0.00 | 34 | 1014.6 |
| 20260505191554 | 79 | 37 | 7.0 | 16.0 | 0.00 | 0.00 | 0.00 | 34 | 1014.6 |
| 20260505191046 | 79 | 116 | 5.0 | 14.0 | 0.00 | 0.00 | 0.00 | 36 | 1014.7 |
| 20260505190547 | 79 | 104 | 5.0 | 15.0 | 0.00 | 0.00 | 0.00 | 37 | 1015.0 |
| 20260505190056 | 78 | 74 | 4.0 | 19.0 | 0.00 | 0.00 | 0.00 | 37 | 1015.1 |
| 20260505185550 | 78 | 26 | 6.0 | 19.0 | 0.00 | 0.00 | 0.00 | 36 | 1015.1 |
| 20260505185047 | 79 | 60 | 5.0 | 19.0 | 0.00 | 0.00 | 0.00 | 36 | 1015.3 |
| 20260505184553 | 79 | 85 | 7.0 | 16.0 | 0.00 | 0.00 | 0.00 | 36 | 1015.4 |
| 20260505184046 | 79 | 175 | 4.0 | 12.0 | 0.00 | 0.00 | 0.00 | 36 | 1015.3 |
| 20260505183550 | 79 | 281 | 7.0 | 13.0 | 0.00 | 0.00 | 0.00 | 37 | 1015.5 |
| 20260505183054 | 80 | 234 | 6.0 | 13.0 | 0.00 | 0.00 | 0.00 | 36 | 1015.6 |
| 20260505182545 | 79 | 0 | 3.0 | 13.0 | 0.00 | 0.00 | 0.00 | 38 | 1015.6 |
| 20260505182045 | 78 | 79 | 4.0 | 13.0 | 0.00 | 0.00 | 0.00 | 39 | 1015.7 |
| 20260505181547 | 78 | 51 | 3.0 | 14.0 | 0.00 | 0.00 | 0.00 | 39 | 1015.7 |
| 20260505181046 | 77 | 49 | 5.0 | 14.0 | 0.00 | 0.00 | 0.00 | 39 | 1015.7 |
| 20260505180548 | 77 | 308 | 6.0 | 14.0 | 0.00 | 0.00 | 0.00 | 38 | 1015.7 |
| 20260505180055 | 78 | 115 | 6.0 | 12.0 | 0.00 | 0.00 | 0.00 | 38 | 1015.9 |
| 20260505175545 | 78 | 140 | 4.0 | 11.0 | 0.00 | 0.00 | 0.00 | 39 | 1015.8 |
| 20260505175048 | 78 | 309 | 3.0 | 12.0 | 0.00 | 0.00 | 0.00 | 40 | 1015.7 |
| 20260505174553 | 78 | 134 | 4.0 | 13.0 | 0.00 | 0.00 | 0.00 | 39 | 1015.9 |
| 20260505174048 | 77 | 37 | 6.0 | 13.0 | 0.00 | 0.00 | 0.00 | 40 | 1015.9 |